Rechercher aéroport 
image banner adimage banner adimage banner ad
image banner ad

KMRY - Monterey Rgnl

Situé à Monterey, United States

ICAO - MRY, IATA - MRY

Données fournies par Airmate  

Information générale

Coordonnées: N36°35'13" W121°50'34"
Élévation : 257 feet MSL.
Variation magnétique : 15° East
Voir autres Aéroports à California

Données opérationnelles

Special qualification required
Heure actuelle UTC:
Heure actuelle locale:
Météo
METAR: KMRY 191154Z AUTO 10003KT 10SM CLR 08/04 A3000 RMK AO2 SLP170 T00830044 10111 20078 58012
TAF: KMRY 191123Z 1912/2012 10007KT P6SM FEW005 FEW250 FM191400 VRB05KT P6SM SCT250 FM192000 27008KT P6SM BKN250 FM200300 12004KT P6SM OVC250 FM200800 12004KT P6SM BKN050 OVC100 FM201100 12007KT P6SM VCSH SCT030 BKN050 OVC080
Voir NOTAMs / SUP AIP / TFR affectant cet aéroport [VIEW]
Fréquences de communication: [VIEW]

Pistes:

Identifiant RWYQFULongueur (ft)Largeur (ft)SurfaceLDA (ft)
10R113°7175150ASPH7000
28L293°7175150ASPH7000
10L113°350360ASPH3504
28R293°350360ASPH3504

Coordonnées de l'aéroport

Adresse: Monterey United States

Autres services d'aviation

Écoles de pilotage

Aerodynamic Aviation - Monterey

Aerodynamic Aviation - Monterey

Vue satellite de KMRY